Welcome to Northern Hawkes Bay. New Zealand.
PWS Header
      nz Flag



Hit Counter


W3C Valid W3C Valid logo


    Wairoa

Select any of the Stations below to visit their websites.










Historic Data from Weather Underground
Select the location of interest below. Wairoa is the default. Please have patience, this Data is slow to load in.
Northern Hawkes Bay Historical Data
Daily Summary for January 1, 2017 Units:  Metric    English   Both
« Previous Day
Next Day »
Daily Weekly Monthly Yearly Custom
  High: Low: Average:
Temperature: 25.5 °C 18.1 °C 21.3 °C
Dew Point: 15.2 °C 9.9 °C 12.4 °C
Humidity: 66% 44% 58%
Wind Speed: 29.4km/h 0.0km/h 12.9km/h
Wind Gust: 42.8km/h - -
Wind- - WNW
Pressure: 1012.1 hPa 1006.3 hPa -
Precipitation: 0.0 mm    
Historical Graphs
 
 
Tabular Data for January 1, 2017
Time Temperature Dew Point Pressure Wind Wind Speed Wind Gust Humidity Rainfall Rate (Hourly) solar
00:01 19.0 °C 12.1 °C 1011.7 hPa North 11.1 km/h 18.3 km/h 64% 0.0 mm 0 W/m2
00:06 18.9 °C 12.2 °C 1011.7 hPa North 9.7 km/h 18.3 km/h 65% 0.0 mm 0 W/m2
00:11 18.8 °C 12.1 °C 1011.7 hPa North 11.1 km/h 17.2 km/h 65% 0.0 mm 0 W/m2
00:16 18.8 °C 12.1 °C 1011.7 hPa North 6.1 km/h 17.2 km/h 65% 0.0 mm 0 W/m2
00:21 18.7 °C 12.0 °C 1011.7 hPa North 7.2 km/h 17.2 km/h 65% 0.0 mm 0 W/m2
00:26 18.7 °C 12.0 °C 1012.1 hPa North 6.1 km/h 17.2 km/h 65% 0.0 mm 0 W/m2
00:31 18.5 °C 11.8 °C 1012.1 hPa North 7.2 km/h 17.2 km/h 65% 0.0 mm 0 W/m2
00:36 18.6 °C 11.9 °C 1012.1 hPa North 8.7 km/h 15.8 km/h 65% 0.0 mm 0 W/m2
00:41 18.6 °C 11.9 °C 1011.7 hPa North 9.7 km/h 15.8 km/h 65% 0.0 mm 0 W/m2
00:46 18.6 °C 11.9 °C 1011.4 hPa North 13.4 km/h 17.2 km/h 65% 0.0 mm 0 W/m2
00:51 18.6 °C 11.9 °C 1011.7 hPa North 11.1 km/h 17.2 km/h 65% 0.0 mm 0 W/m2
00:56 18.6 °C 11.9 °C 1011.7 hPa NNW 11.1 km/h 17.2 km/h 65% 0.0 mm 0 W/m2
01:01 18.6 °C 11.9 °C 1011.7 hPa NNW 11.1 km/h 17.2 km/h 65% 0.0 mm 0 W/m2
01:06 18.6 °C 11.9 °C 1011.7 hPa NNW 9.7 km/h 15.8 km/h 65% 0.0 mm 0 W/m2
01:11 18.6 °C 11.9 °C 1011.4 hPa North 8.7 km/h 15.8 km/h 65% 0.0 mm 0 W/m2
01:16 18.5 °C 11.8 °C 1011.7 hPa North 7.2 km/h 15.8 km/h 65% 0.0 mm 0 W/m2
01:21 18.5 °C 11.8 °C 1011.7 hPa NNW 8.7 km/h 18.3 km/h 65% 0.0 mm 0 W/m2
01:26 18.5 °C 11.8 °C 1011.7 hPa North 7.2 km/h 18.3 km/h 65% 0.0 mm 0 W/m2
01:31 18.5 °C 11.8 °C 1011.4 hPa North 7.2 km/h 17.2 km/h 65% 0.0 mm 0 W/m2
01:36 18.5 °C 11.8 °C 1011.4 hPa NNW 9.7 km/h 17.2 km/h 65% 0.0 mm 0 W/m2
01:41 18.5 °C 11.8 °C 1011.4 hPa NW 6.1 km/h 17.2 km/h 65% 0.0 mm 0 W/m2
01:46 18.6 °C 11.9 °C 1011.4 hPa NNW 12.2 km/h 17.2 km/h 65% 0.0 mm 0 W/m2
01:51 18.6 °C 11.9 °C 1011.4 hPa North 8.7 km/h 20.9 km/h 65% 0.0 mm 0 W/m2
01:56 18.6 °C 11.9 °C 1011.4 hPa North 11.1 km/h 20.9 km/h 65% 0.0 mm 0 W/m2
02:01 18.6 °C 11.7 °C 1011.4 hPa North 8.7 km/h 18.3 km/h 64% 0.0 mm 0 W/m2
02:06 18.6 °C 11.9 °C 1011.4 hPa North 8.7 km/h 18.3 km/h 65% 0.0 mm 0 W/m2
02:11 18.5 °C 11.8 °C 1011.1 hPa North 9.7 km/h 17.2 km/h 65% 0.0 mm 0 W/m2
02:16 18.5 °C 11.6 °C 1011.1 hPa North 8.7 km/h 20.9 km/h 64% 0.0 mm 0 W/m2
02:21 18.5 °C 11.6 °C 1011.1 hPa North 9.7 km/h 20.9 km/h 64% 0.0 mm 0 W/m2
02:26 18.6 °C 11.7 °C 1011.1 hPa North 12.2 km/h 18.3 km/h 64% 0.0 mm 0 W/m2
02:31 18.6 °C 11.7 °C 1011.1 hPa North 11.1 km/h 21.9 km/h 64% 0.0 mm 0 W/m2
02:36 18.6 °C 11.7 °C 1011.1 hPa North 11.1 km/h 21.9 km/h 64% 0.0 mm 0 W/m2
02:41 18.8 °C 11.6 °C 1010.7 hPa North 7.2 km/h 19.5 km/h 63% 0.0 mm 0 W/m2
02:46 18.8 °C 11.6 °C 1010.7 hPa North 13.4 km/h 20.9 km/h 63% 0.0 mm 0 W/m2
02:51 18.8 °C 11.6 °C 1010.7 hPa North 18.3 km/h 24.5 km/h 63% 0.0 mm 0 W/m2
02:56 18.7 °C 11.5 °C 1010.7 hPa North 13.4 km/h 24.5 km/h 63% 0.0 mm 0 W/m2
03:01 18.8 °C 11.6 °C 1010.7 hPa North 11.1 km/h 25.6 km/h 63% 0.0 mm 0 W/m2
03:06 18.7 °C 11.5 °C 1010.4 hPa North 9.7 km/h 25.6 km/h 63% 0.0 mm 0 W/m2
03:11 18.7 °C 11.5 °C 1010.7 hPa North 8.7 km/h 25.6 km/h 63% 0.0 mm 0 W/m2
03:16 18.7 °C 11.5 °C 1010.4 hPa North 12.2 km/h 21.9 km/h 63% 0.0 mm 0 W/m2
03:21 18.7 °C 11.5 °C 1010.4 hPa North 14.8 km/h 25.6 km/h 63% 0.0 mm 0 W/m2
03:26 18.8 °C 11.4 °C 1010.0 hPa North 7.2 km/h 25.6 km/h 62% 0.0 mm 0 W/m2
03:31 18.7 °C 11.3 °C 1010.4 hPa North 13.4 km/h 21.9 km/h 62% 0.0 mm 0 W/m2
03:36 18.8 °C 11.4 °C 1010.4 hPa North 18.3 km/h 31.7 km/h 62% 0.0 mm 0 W/m2
03:41 18.8 °C 11.4 °C 1010.0 hPa North 13.4 km/h 31.7 km/h 62% 0.0 mm 0 W/m2
03:46 18.8 °C 11.1 °C 1010.0 hPa North 11.1 km/h 25.6 km/h 61% 0.0 mm 0 W/m2
03:51 18.7 °C 11.3 °C 1010.0 hPa NNW 18.3 km/h 25.6 km/h 62% 0.0 mm 0 W/m2
03:56 18.7 °C 11.3 °C 1010.0 hPa North 13.4 km/h 25.6 km/h 62% 0.0 mm 0 W/m2
04:01 18.8 °C 11.4 °C 1010.0 hPa NNE 12.2 km/h 25.6 km/h 62% 0.0 mm 0 W/m2
04:06 18.9 °C 11.4 °C 1010.0 hPa NNE 12.2 km/h 24.5 km/h 62% 0.0 mm 0 W/m2
04:11 18.8 °C 11.4 °C 1010.0 hPa NNE 11.1 km/h 24.5 km/h 62% 0.0 mm 0 W/m2
04:16 18.8 °C 11.4 °C 1010.0 hPa NNE 8.7 km/h 21.9 km/h 62% 0.0 mm 0 W/m2
04:21 18.8 °C 11.6 °C 1010.0 hPa North 13.4 km/h 20.9 km/h 63% 0.0 mm 0 W/m2
04:26 18.8 °C 11.6 °C 1010.0 hPa North 13.4 km/h 20.9 km/h 63% 0.0 mm 0 W/m2
04:31 18.9 °C 11.7 °C 1010.0 hPa North 6.1 km/h 20.9 km/h 63% 0.0 mm 0 W/m2
04:36 18.8 °C 11.6 °C 1010.0 hPa North 12.2 km/h 20.9 km/h 63% 0.0 mm 0 W/m2
04:41 18.9 °C 11.4 °C 1010.0 hPa NNW 11.1 km/h 19.5 km/h 62% 0.0 mm 0 W/m2
04:46 18.9 °C 11.4 °C 1010.0 hPa NNW 6.1 km/h 19.5 km/h 62% 0.0 mm 0 W/m2
04:51 18.8 °C 11.6 °C 1010.0 hPa NNW 11.1 km/h 18.3 km/h 63% 0.0 mm 0 W/m2
04:56 18.9 °C 11.7 °C 1010.4 hPa NNW 9.7 km/h 19.5 km/h 63% 0.0 mm 0 W/m2
05:01 18.9 °C 11.7 °C 1010.0 hPa NW 9.7 km/h 19.5 km/h 63% 0.0 mm 0 W/m2
05:06 19.0 °C 11.6 °C 1010.0 hPa North 8.7 km/h 19.5 km/h 62% 0.0 mm 0 W/m2
05:11 18.9 °C 11.7 °C 1010.0 hPa North 13.4 km/h 19.5 km/h 63% 0.0 mm 0 W/m2
05:16 18.8 °C 11.6 °C 1010.0 hPa NNW 11.1 km/h 20.9 km/h 63% 0.0 mm 0 W/m2
05:21 18.7 °C 11.8 °C 1010.4 hPa NNW 8.7 km/h 20.9 km/h 64% 0.0 mm 0 W/m2
05:26 18.5 °C 11.8 °C 1010.4 hPa NNW 8.7 km/h 20.9 km/h 65% 0.0 mm 0 W/m2
05:31 18.3 °C 11.6 °C 1010.4 hPa NNW 6.1 km/h 15.8 km/h 65% 0.0 mm 0 W/m2
05:36 18.2 °C 11.8 °C 1010.4 hPa NNW 5.0 km/h 14.8 km/h 66% 0.0 mm 0 W/m2
05:41 18.2 °C 11.8 °C 1010.4 hPa North 7.2 km/h 12.2 km/h 66% 0.0 mm 0 W/m2
05:46 18.1 °C 11.7 °C 1010.4 hPa NNW 3.5 km/h 11.1 km/h 66% 0.0 mm 1 W/m2
05:51 18.3 °C 11.6 °C 1010.4 hPa NNW 8.7 km/h 13.4 km/h 65% 0.0 mm 1 W/m2
05:56 18.4 °C 11.2 °C 1010.4 hPa NW 8.7 km/h 20.9 km/h 63% 0.0 mm 2 W/m2
06:01 18.5 °C 11.1 °C 1010.0 hPa NNW 7.2 km/h 20.9 km/h 62% 0.0 mm 4 W/m2
06:06 18.7 °C 10.8 °C 1010.4 hPa NNW 9.7 km/h 15.8 km/h 60% 0.0 mm 7 W/m2
06:11 18.6 °C 10.7 °C 1010.4 hPa NNW 6.1 km/h 15.8 km/h 60% 0.0 mm 10 W/m2
06:16 18.6 °C 10.7 °C 1010.4 hPa North 7.2 km/h 15.8 km/h 60% 0.0 mm 13 W/m2
06:21 18.6 °C 10.9 °C 1010.4 hPa NNE 5.0 km/h 14.8 km/h 61% 0.0 mm 15 W/m2
06:26 18.6 °C 10.9 °C 1010.4 hPa NNE 7.2 km/h 14.8 km/h 61% 0.0 mm 18 W/m2
06:31 18.5 °C 11.3 °C 1010.4 hPa NNE 3.5 km/h 8.7 km/h 63% 0.0 mm 21 W/m2
06:36 18.3 °C 11.4 °C 1010.4 hPa NNE 3.5 km/h 8.7 km/h 64% 0.0 mm 26 W/m2
06:41 18.3 °C 11.6 °C 1010.7 hPa NE 2.6 km/h 6.1 km/h 65% 0.0 mm 30 W/m2
06:46 18.2 °C 11.5 °C 1010.7 hPa NE 2.6 km/h 6.1 km/h 65% 0.0 mm 36 W/m2
06:51 18.2 °C 11.5 °C 1010.4 hPa NE 2.6 km/h 6.1 km/h 65% 0.0 mm 41 W/m2
06:56 18.3 °C 11.6 °C 1010.7 hPa Calm   5.0 km/h 65% 0.0 mm 49 W/m2
07:01 18.4 °C 11.7 °C 1010.7 hPa Calm   5.0 km/h 65% 0.0 mm 57 W/m2
07:06 18.6 °C 11.2 °C 1010.4 hPa NNW 6.1 km/h 14.8 km/h 62% 0.0 mm 65 W/m2
07:11 19.0 °C 10.6 °C 1010.4 hPa NNW 8.7 km/h 18.3 km/h 58% 0.0 mm 75 W/m2
07:16 19.2 °C 10.5 °C 1010.4 hPa NW 5.0 km/h 18.3 km/h 57% 0.0 mm 85 W/m2
07:21 19.3 °C 10.3 °C 1010.0 hPa NNW 11.1 km/h 18.3 km/h 56% 0.0 mm 97 W/m2
07:26 19.6 °C 10.6 °C 1010.4 hPa NNW 7.2 km/h 21.9 km/h 56% 0.0 mm 108 W/m2
07:31 19.7 °C 10.7 °C 1010.4 hPa NNW 7.2 km/h 21.9 km/h 56% 0.0 mm 115 W/m2
07:36 19.8 °C 10.8 °C 1010.7 hPa NNW 5.0 km/h 14.8 km/h 56% 0.0 mm 122 W/m2
07:41 19.9 °C 10.9 °C 1010.7 hPa NNW 5.0 km/h 11.1 km/h 56% 0.0 mm 127 W/m2
07:46 20.0 °C 10.7 °C 1010.7 hPa NNW 5.0 km/h 9.7 km/h 55% 0.0 mm 135 W/m2
07:51 20.1 °C 11.6 °C 1010.7 hPa NNW 3.5 km/h 9.7 km/h 58% 0.0 mm 146 W/m2
07:56 20.1 °C 11.8 °C 1010.7 hPa North 3.5 km/h 9.7 km/h 59% 0.0 mm 158 W/m2
08:12 20.4 °C 10.8 °C 1010.7 hPa NW 12.2 km/h 21.9 km/h 54% 0.0 mm 203 W/m2
08:17 20.6 °C 11.0 °C 1010.7 hPa NW 7.2 km/h 18.3 km/h 54% 0.0 mm 213 W/m2
08:22 20.9 °C 11.3 °C 1010.7 hPa NNW 8.7 km/h 18.3 km/h 54% 0.0 mm 460 W/m2
08:27 21.9 °C 11.6 °C 1010.7 hPa NNW 9.7 km/h 23.3 km/h 52% 0.0 mm 474 W/m2
08:32 22.4 °C 11.2 °C 1010.7 hPa NW 12.2 km/h 23.3 km/h 49% 0.0 mm 491 W/m2
08:37 22.4 °C 11.5 °C 1010.7 hPa NNW 9.7 km/h 20.9 km/h 50% 0.0 mm 378 W/m2
08:42 22.3 °C 10.4 °C 1010.7 hPa NNW 7.2 km/h 18.3 km/h 47% 0.0 mm 427 W/m2
08:47 22.3 °C 10.8 °C 1011.1 hPa NW 12.2 km/h 18.3 km/h 48% 0.0 mm 359 W/m2
08:52 22.1 °C 10.9 °C 1011.1 hPa NNW 12.2 km/h 20.9 km/h 49% 0.0 mm 476 W/m2
08:57 22.5 °C 11.3 °C 1011.1 hPa NNW 14.8 km/h 20.9 km/h 49% 0.0 mm 566 W/m2
09:02 22.9 °C 11.3 °C 1011.1 hPa NNW 9.7 km/h 20.9 km/h 48% 0.0 mm 616 W/m2
09:07 23.3 °C 11.7 °C 1011.1 hPa NNW 13.4 km/h 20.9 km/h 48% 0.0 mm 581 W/m2
09:12 23.0 °C 11.4 °C 1011.1 hPa NW 15.8 km/h 27.0 km/h 48% 0.0 mm 532 W/m2
09:17 22.7 °C 11.2 °C 1011.4 hPa NW 25.6 km/h 35.6 km/h 48% 0.0 mm 356 W/m2
09:22 22.1 °C 11.2 °C 1011.4 hPa NW 19.5 km/h 37.8 km/h 50% 0.0 mm 408 W/m2
09:27 22.0 °C 10.5 °C 1011.1 hPa NW 15.8 km/h 37.8 km/h 48% 0.0 mm 476 W/m2
09:32 22.2 °C 10.1 °C 1011.4 hPa NW 19.5 km/h 36.7 km/h 46% 0.0 mm 470 W/m2
09:37 22.1 °C 9.9 °C 1011.1 hPa NW 17.2 km/h 39.3 km/h 46% 0.0 mm 467 W/m2
09:42 22.4 °C 10.6 °C 1011.1 hPa NW 12.2 km/h 39.3 km/h 47% 0.0 mm 498 W/m2
09:47 22.7 °C 10.8 °C 1011.4 hPa NNW 14.8 km/h 29.4 km/h 47% 0.0 mm 448 W/m2
09:52 22.2 °C 10.1 °C 1011.1 hPa NW 29.4 km/h 40.4 km/h 46% 0.0 mm 354 W/m2
09:57 22.1 °C 10.3 °C 1011.1 hPa NW 19.5 km/h 40.4 km/h 47% 0.0 mm 367 W/m2
10:02 22.2 °C 10.1 °C 1011.4 hPa NW 13.4 km/h 40.4 km/h 46% 0.0 mm 474 W/m2
10:07 22.6 °C 10.4 °C 1011.1 hPa NNW 17.2 km/h 29.4 km/h 46% 0.0 mm 629 W/m2
10:12 23.2 °C 11.3 °C 1011.1 hPa NNW 18.3 km/h 27.0 km/h 47% 0.0 mm 518 W/m2
10:17 22.9 °C 10.7 °C 1011.1 hPa NW 18.3 km/h 39.3 km/h 46% 0.0 mm 623 W/m2
10:22 23.1 °C 11.2 °C 1011.1 hPa WNW 21.9 km/h 39.3 km/h 47% 0.0 mm 790 W/m2
10:27 23.0 °C 10.8 °C 1011.1 hPa NW 17.2 km/h 34.3 km/h 46% 0.0 mm 591 W/m2
10:32 23.5 °C 10.9 °C 1011.1 hPa NW 25.6 km/h 42.8 km/h 45% 0.0 mm 946 W/m2
10:37 23.7 °C 11.4 °C 1010.7 hPa NW 17.2 km/h 42.8 km/h 46% 0.0 mm 1035 W/m2
10:42 24.5 °C 11.4 °C 1010.7 hPa NW 19.5 km/h 40.4 km/h 44% 0.0 mm 1088 W/m2
10:47 24.2 °C 11.2 °C 1010.7 hPa NNW 17.2 km/h 35.6 km/h 44% 0.0 mm 899 W/m2
10:52 24.1 °C 11.1 °C 1010.7 hPa NNW 14.8 km/h 35.6 km/h 44% 0.0 mm 615 W/m2
10:57 23.5 °C 10.9 °C 1010.4 hPa NW 13.4 km/h 31.7 km/h 45% 0.0 mm 601 W/m2
11:02 23.9 °C 11.3 °C 1010.7 hPa WNW 17.2 km/h 31.7 km/h 45% 0.0 mm 506 W/m2
11:07 23.7 °C 11.4 °C 1010.7 hPa NNW 13.4 km/h 29.4 km/h 46% 0.0 mm 380 W/m2
11:12 23.2 °C 10.9 °C 1010.4 hPa NNW 7.2 km/h 28.0 km/h 46% 0.0 mm 332 W/m2
11:17 23.3 °C 11.1 °C 1010.4 hPa NW 12.2 km/h 28.0 km/h 46% 0.0 mm 296 W/m2
11:22 23.0 °C 11.1 °C 1010.4 hPa NW 15.8 km/h 21.9 km/h 47% 0.0 mm 269 W/m2
11:27 23.1 °C 11.2 °C 1010.4 hPa NNW 12.2 km/h 24.5 km/h 47% 0.0 mm 254 W/m2
11:32 22.9 °C 10.7 °C 1010.4 hPa NNW 14.8 km/h 28.0 km/h 46% 0.0 mm 244 W/m2
11:37 22.8 °C 10.9 °C 1010.0 hPa NNW 11.1 km/h 28.0 km/h 47% 0.0 mm 241 W/m2
11:42 22.8 °C 10.9 °C 1010.4 hPa NNW 9.7 km/h 19.5 km/h 47% 0.0 mm 243 W/m2
11:47 22.7 °C 11.2 °C 1010.4 hPa North 11.1 km/h 21.9 km/h 48% 0.0 mm 241 W/m2
11:52 22.6 °C 10.7 °C 1010.4 hPa North 14.8 km/h 23.3 km/h 47% 0.0 mm 227 W/m2
11:57 22.6 °C 11.1 °C 1010.4 hPa North 11.1 km/h 23.3 km/h 48% 0.0 mm 217 W/m2
12:02 22.7 °C 11.2 °C 1010.4 hPa NNW 13.4 km/h 23.3 km/h 48% 0.0 mm 218 W/m2
12:07 22.4 °C 10.9 °C 1010.4 hPa NNW 14.8 km/h 23.3 km/h 48% 0.0 mm 228 W/m2
12:12 22.6 °C 11.3 °C 1010.4 hPa NNW 13.4 km/h 24.5 km/h 49% 0.0 mm 242 W/m2
12:17 22.7 °C 11.4 °C 1010.4 hPa North 12.2 km/h 24.5 km/h 49% 0.0 mm 257 W/m2
12:22 22.7 °C 11.4 °C 1010.4 hPa North 12.2 km/h 23.3 km/h 49% 0.0 mm 267 W/m2
12:27 22.7 °C 11.4 °C 1010.4 hPa NNW 19.5 km/h 23.3 km/h 49% 0.0 mm 265 W/m2
12:32 22.7 °C 11.4 °C 1010.4 hPa NNW 12.2 km/h 23.3 km/h 49% 0.0 mm 258 W/m2
12:37 22.8 °C 11.8 °C 1010.4 hPa NNW 9.7 km/h 23.3 km/h 50% 0.0 mm 258 W/m2
12:42 23.0 °C 11.7 °C 1010.4 hPa NNW 9.7 km/h 21.9 km/h 49% 0.0 mm 261 W/m2
12:47 23.0 °C 11.7 °C 1010.0 hPa NNW 15.8 km/h 24.5 km/h 49% 0.0 mm 267 W/m2
12:52 23.1 °C 11.8 °C 1010.0 hPa NW 9.7 km/h 24.5 km/h 49% 0.0 mm 275 W/m2
12:57 23.0 °C 12.1 °C 1010.0 hPa NW 13.4 km/h 30.6 km/h 50% 0.0 mm 283 W/m2
13:02 23.0 °C 12.3 °C 1009.7 hPa NW 24.5 km/h 30.6 km/h 51% 0.0 mm 293 W/m2
13:07 22.9 °C 12.6 °C 1009.7 hPa North 18.3 km/h 35.6 km/h 52% 0.0 mm 312 W/m2
13:12 22.9 °C 12.6 °C 1009.7 hPa NNW 20.9 km/h 37.8 km/h 52% 0.0 mm 317 W/m2
13:18 23.0 °C 12.6 °C 1009.7 hPa NW 12.2 km/h 37.8 km/h 52% 0.0 mm 317 W/m2
13:23 23.2 °C 13.1 °C 1009.4 hPa NW 14.8 km/h 29.4 km/h 53% 0.0 mm 310 W/m2
13:28 23.2 °C 13.1 °C 1009.4 hPa NW 23.3 km/h 33.1 km/h 53% 0.0 mm 305 W/m2
13:33 23.1 °C 13.0 °C 1009.4 hPa NNW 12.2 km/h 33.1 km/h 53% 0.0 mm 301 W/m2
13:38 23.1 °C 13.0 °C 1009.4 hPa NNW 9.7 km/h 33.1 km/h 53% 0.0 mm 301 W/m2
13:43 23.2 °C 13.4 °C 1009.4 hPa NNW 15.8 km/h 35.6 km/h 54% 0.0 mm 293 W/m2
13:48 23.2 °C 13.4 °C 1009.0 hPa NNW 15.8 km/h 35.6 km/h 54% 0.0 mm 288 W/m2
13:53 23.2 °C 12.8 °C 1009.0 hPa NNW 21.9 km/h 37.8 km/h 52% 0.0 mm 279 W/m2
13:58 23.2 °C 13.1 °C 1009.0 hPa NNW 12.2 km/h 40.4 km/h 53% 0.0 mm 292 W/m2
14:03 23.4 °C 13.6 °C 1009.0 hPa NNW 13.4 km/h 40.4 km/h 54% 0.0 mm 319 W/m2
14:08 23.5 °C 13.4 °C 1009.0 hPa NNW 20.9 km/h 36.7 km/h 53% 0.0 mm 352 W/m2
14:13 23.3 °C 13.2 °C 1008.7 hPa NNW 21.9 km/h 37.8 km/h 53% 0.0 mm 345 W/m2
14:18 23.4 °C 13.3 °C 1008.7 hPa NW 12.2 km/h 37.8 km/h 53% 0.0 mm 361 W/m2
14:23 23.3 °C 12.9 °C 1009.0 hPa NNW 18.3 km/h 34.3 km/h 52% 0.0 mm 323 W/m2
14:28 23.2 °C 13.1 °C 1009.0 hPa NNW 27.0 km/h 35.6 km/h 53% 0.0 mm 309 W/m2
14:33 23.3 °C 13.8 °C 1008.7 hPa NNW 17.2 km/h 35.6 km/h 55% 0.0 mm 267 W/m2
14:38 23.4 °C 13.9 °C 1009.0 hPa NNW 24.5 km/h 35.6 km/h 55% 0.0 mm 232 W/m2
14:43 23.1 °C 13.6 °C 1009.0 hPa NNW 20.9 km/h 35.6 km/h 55% 0.0 mm 217 W/m2
14:48 22.9 °C 13.1 °C 1008.7 hPa NNW 15.8 km/h 35.6 km/h 54% 0.0 mm 212 W/m2
14:53 22.8 °C 13.6 °C 1008.7 hPa NNW 17.2 km/h 35.6 km/h 56% 0.0 mm 223 W/m2
14:58 22.8 °C 13.6 °C 1008.7 hPa NW 18.3 km/h 33.1 km/h 56% 0.0 mm 235 W/m2
15:03 23.0 °C 13.8 °C 1008.7 hPa NNW 17.2 km/h 33.1 km/h 56% 0.0 mm 202 W/m2
15:08 23.0 °C 13.8 °C 1008.7 hPa NW 15.8 km/h 24.5 km/h 56% 0.0 mm 222 W/m2
15:13 22.9 °C 13.4 °C 1008.4 hPa NW 19.5 km/h 27.0 km/h 55% 0.0 mm 224 W/m2
15:18 22.9 °C 13.7 °C 1008.4 hPa NW 17.2 km/h 30.6 km/h 56% 0.0 mm 236 W/m2
15:23 22.7 °C 13.2 °C 1008.4 hPa NNW 19.5 km/h 30.6 km/h 55% 0.0 mm 221 W/m2
15:28 22.4 °C 13.5 °C 1008.4 hPa North 21.9 km/h 37.8 km/h 57% 0.0 mm 192 W/m2
15:33 22.1 °C 13.4 °C 1008.4 hPa North 15.8 km/h 37.8 km/h 58% 0.0 mm 193 W/m2
15:38 22.0 °C 13.6 °C 1008.4 hPa North 20.9 km/h 37.8 km/h 59% 0.0 mm 207 W/m2
15:43 21.9 °C 14.1 °C 1008.4 hPa North 13.4 km/h 33.1 km/h 61% 0.0 mm 252 W/m2
15:48 22.0 °C 13.9 °C 1008.4 hPa NNW 24.5 km/h 31.7 km/h 60% 0.0 mm 339 W/m2
15:53 22.0 °C 13.9 °C 1008.4 hPa NW 23.3 km/h 33.1 km/h 60% 0.0 mm 316 W/m2
15:58 22.2 °C 14.3 °C 1008.4 hPa NW 18.3 km/h 33.1 km/h 61% 0.0 mm 278 W/m2
16:03 22.1 °C 14.2 °C 1008.4 hPa NNW 12.2 km/h 30.6 km/h 61% 0.0 mm 266 W/m2
16:08 22.2 °C 14.3 °C 1008.0 hPa NNW 14.8 km/h 33.1 km/h 61% 0.0 mm 270 W/m2
16:13 22.3 °C 14.4 °C 1008.4 hPa NNW 17.2 km/h 33.1 km/h 61% 0.0 mm 291 W/m2
16:18 22.4 °C 14.3 °C 1008.4 hPa NNW 15.8 km/h 28.0 km/h 60% 0.0 mm 496 W/m2
16:23 23.2 °C 14.8 °C 1008.0 hPa NNW 20.9 km/h 28.0 km/h 59% 0.0 mm 416 W/m2
16:28 23.1 °C 14.1 °C 1007.7 hPa NNW 14.8 km/h 28.0 km/h 57% 0.0 mm 358 W/m2
16:33 23.0 °C 14.3 °C 1007.7 hPa NNW 13.4 km/h 28.0 km/h 58% 0.0 mm 302 W/m2
16:38 23.0 °C 14.3 °C 1007.7 hPa North 13.4 km/h 29.4 km/h 58% 0.0 mm 700 W/m2
16:57 25.3 °C 14.4 °C 1007.7 hPa North 18.3 km/h 29.4 km/h 51% 0.0 mm 683 W/m2
17:02 25.1 °C 14.6 °C 1007.3 hPa North 20.9 km/h 29.4 km/h 52% 0.0 mm 638 W/m2
17:07 25.5 °C 15.2 °C 1007.3 hPa North 11.1 km/h 27.0 km/h 53% 0.0 mm 603 W/m2
17:12 25.0 °C 14.5 °C 1007.3 hPa North 12.2 km/h 30.6 km/h 52% 0.0 mm 284 W/m2
17:17 24.3 °C 14.4 °C 1007.3 hPa NNW 14.8 km/h 30.6 km/h 54% 0.0 mm 216 W/m2
17:22 23.7 °C 14.4 °C 1007.0 hPa NNW 14.8 km/h 33.1 km/h 56% 0.0 mm 177 W/m2
17:27 23.5 °C 14.2 °C 1007.3 hPa North 21.9 km/h 33.1 km/h 56% 0.0 mm 232 W/m2
17:32 23.7 °C 14.4 °C 1007.3 hPa North 12.2 km/h 29.4 km/h 56% 0.0 mm 507 W/m2
17:37 24.4 °C 14.5 °C 1007.0 hPa NNW 14.8 km/h 27.0 km/h 54% 0.0 mm 332 W/m2
17:42 24.4 °C 14.5 °C 1007.0 hPa NNW 13.4 km/h 25.6 km/h 54% 0.0 mm 303 W/m2
17:47 24.2 °C 14.3 °C 1007.0 hPa NNW 11.1 km/h 25.6 km/h 54% 0.0 mm 213 W/m2
17:52 23.8 °C 14.5 °C 1007.0 hPa NNW 13.4 km/h 23.3 km/h 56% 0.0 mm 173 W/m2
17:57 23.5 °C 14.2 °C 1007.0 hPa NNW 14.8 km/h 30.6 km/h 56% 0.0 mm 142 W/m2
18:02 23.4 °C 14.2 °C 1007.0 hPa NNW 20.9 km/h 30.6 km/h 56% 0.0 mm 128 W/m2
18:07 23.1 °C 14.1 °C 1007.0 hPa NNW 15.8 km/h 29.4 km/h 57% 0.0 mm 126 W/m2
18:12 23.0 °C 14.1 °C 1007.0 hPa NNW 17.2 km/h 29.4 km/h 57% 0.0 mm 122 W/m2
18:17 22.9 °C 13.9 °C 1007.0 hPa NNW 14.8 km/h 25.6 km/h 57% 0.0 mm 118 W/m2
18:22 22.8 °C 13.8 °C 1006.7 hPa NNW 13.4 km/h 24.5 km/h 57% 0.0 mm 113 W/m2
18:27 22.7 °C 13.8 °C 1006.7 hPa North 18.3 km/h 24.5 km/h 57% 0.0 mm 132 W/m2
18:32 23.0 °C 13.8 °C 1006.7 hPa NNW 15.8 km/h 24.5 km/h 56% 0.0 mm 292 W/m2
18:37 23.1 °C 13.8 °C 1006.7 hPa NNW 15.8 km/h 25.6 km/h 56% 0.0 mm 164 W/m2
18:42 22.9 °C 13.9 °C 1007.0 hPa NNW 15.8 km/h 27.0 km/h 57% 0.0 mm 229 W/m2
18:47 23.2 °C 13.9 °C 1007.0 hPa North 15.8 km/h 27.0 km/h 56% 0.0 mm 188 W/m2
18:52 23.1 °C 13.6 °C 1007.0 hPa North 13.4 km/h 25.6 km/h 55% 0.0 mm 138 W/m2
18:57 23.4 °C 13.9 °C 1007.0 hPa NNW 17.2 km/h 27.0 km/h 55% 0.0 mm 278 W/m2
19:02 23.6 °C 13.8 °C 1007.0 hPa NNW 18.3 km/h 29.4 km/h 54% 0.0 mm 228 W/m2
19:07 23.4 °C 13.9 °C 1007.0 hPa North 17.2 km/h 29.4 km/h 55% 0.0 mm 204 W/m2
19:12 23.4 °C 13.9 °C 1007.0 hPa NNW 8.7 km/h 29.4 km/h 55% 0.0 mm 144 W/m2
19:17 23.6 °C 13.8 °C 1007.0 hPa NW 15.8 km/h 29.4 km/h 54% 0.0 mm 241 W/m2
19:22 23.7 °C 13.6 °C 1007.0 hPa NNW 14.8 km/h 33.1 km/h 53% 0.0 mm 223 W/m2
19:27 23.6 °C 13.5 °C 1007.0 hPa NNW 13.4 km/h 33.1 km/h 53% 0.0 mm 212 W/m2
19:32 23.7 °C 13.6 °C 1007.3 hPa NNW 18.3 km/h 33.1 km/h 53% 0.0 mm 198 W/m2
19:37 23.6 °C 13.5 °C 1007.0 hPa NNW 23.3 km/h 37.8 km/h 53% 0.0 mm 175 W/m2
19:42 23.1 °C 13.6 °C 1007.0 hPa NNW 14.8 km/h 37.8 km/h 55% 0.0 mm 86 W/m2
19:47 22.6 °C 13.4 °C 1007.0 hPa NNW 15.8 km/h 29.4 km/h 56% 0.0 mm 90 W/m2
19:52 22.5 °C 13.3 °C 1007.0 hPa NNW 18.3 km/h 29.4 km/h 56% 0.0 mm 79 W/m2
19:57 22.4 °C 13.2 °C 1006.7 hPa NW 19.5 km/h 29.4 km/h 56% 0.0 mm 101 W/m2
20:02 22.4 °C 13.2 °C 1006.7 hPa NW 23.3 km/h 33.1 km/h 56% 0.0 mm 52 W/m2
20:07 22.2 °C 13.0 °C 1006.7 hPa NW 14.8 km/h 33.1 km/h 56% 0.0 mm 44 W/m2
20:12 22.1 °C 13.2 °C 1006.7 hPa NNW 19.5 km/h 31.7 km/h 57% 0.0 mm 36 W/m2
20:17 22.0 °C 13.1 °C 1006.7 hPa NNW 15.8 km/h 35.6 km/h 57% 0.0 mm 29 W/m2
20:22 21.9 °C 13.8 °C 1006.7 hPa NNW 14.8 km/h 35.6 km/h 60% 0.0 mm 22 W/m2
20:27 21.8 °C 13.7 °C 1006.7 hPa NNW 14.8 km/h 23.3 km/h 60% 0.0 mm 16 W/m2
20:32 21.7 °C 13.9 °C 1006.7 hPa NNW 12.2 km/h 23.3 km/h 61% 0.0 mm 10 W/m2
20:37 21.5 °C 13.9 °C 1006.7 hPa NNW 14.8 km/h 29.4 km/h 62% 0.0 mm 5 W/m2
20:42 21.4 °C 13.8 °C 1006.3 hPa North 21.9 km/h 29.4 km/h 62% 0.0 mm 2 W/m2
20:47 21.6 °C 13.8 °C 1006.3 hPa NNW 17.2 km/h 34.3 km/h 61% 0.0 mm 0 W/m2
20:52 21.4 °C 13.8 °C 1006.3 hPa NNW 18.3 km/h 34.3 km/h 62% 0.0 mm 0 W/m2
20:57 21.3 °C 13.7 °C 1006.7 hPa NNW 13.4 km/h 25.6 km/h 62% 0.0 mm 0 W/m2
21:02 21.2 °C 13.9 °C 1006.7 hPa North 11.1 km/h 25.6 km/h 63% 0.0 mm 0 W/m2
21:07 21.3 °C 13.7 °C 1006.7 hPa North 15.8 km/h 27.0 km/h 62% 0.0 mm 0 W/m2
21:12 21.3 °C 14.0 °C 1006.7 hPa NNW 11.1 km/h 27.0 km/h 63% 0.0 mm 0 W/m2
21:17 21.4 °C 13.8 °C 1006.7 hPa NNW 18.3 km/h 31.7 km/h 62% 0.0 mm 0 W/m2
21:22 21.5 °C 13.9 °C 1006.7 hPa NNW 20.9 km/h 33.1 km/h 62% 0.0 mm 0 W/m2
21:27 21.5 °C 13.9 °C 1007.0 hPa NNW 12.2 km/h 33.1 km/h 62% 0.0 mm 0 W/m2
21:32 21.3 °C 13.7 °C 1006.7 hPa NNW 11.1 km/h 30.6 km/h 62% 0.0 mm 0 W/m2
21:37 21.2 °C 13.7 °C 1006.7 hPa NNW 17.2 km/h 25.6 km/h 62% 0.0 mm 0 W/m2
21:42 21.3 °C 13.7 °C 1006.7 hPa NNW 14.8 km/h 25.6 km/h 62% 0.0 mm 0 W/m2
21:47 21.4 °C 13.8 °C 1006.7 hPa NNW 11.1 km/h 25.6 km/h 62% 0.0 mm 0 W/m2
21:52 21.3 °C 13.7 °C 1006.7 hPa North 9.7 km/h 24.5 km/h 62% 0.0 mm 0 W/m2
21:57 21.2 °C 13.7 °C 1006.7 hPa North 9.7 km/h 19.5 km/h 62% 0.0 mm 0 W/m2
22:02 21.1 °C 13.6 °C 1006.7 hPa North 9.7 km/h 15.8 km/h 62% 0.0 mm 0 W/m2
22:07 21.0 °C 13.7 °C 1006.7 hPa North 9.7 km/h 15.8 km/h 63% 0.0 mm 0 W/m2
22:12 21.0 °C 13.7 °C 1006.7 hPa North 8.7 km/h 15.8 km/h 63% 0.0 mm 0 W/m2
22:17 20.9 °C 13.8 °C 1006.7 hPa North 6.1 km/h 18.3 km/h 64% 0.0 mm 0 W/m2
22:22 20.9 °C 13.8 °C 1006.7 hPa North 12.2 km/h 18.3 km/h 64% 0.0 mm 0 W/m2
22:27 21.0 °C 13.7 °C 1006.7 hPa NNW 9.7 km/h 18.3 km/h 63% 0.0 mm 0 W/m2
22:32 21.1 °C 13.8 °C 1006.7 hPa NNW 7.2 km/h 20.9 km/h 63% 0.0 mm 0 W/m2
22:37 21.0 °C 13.7 °C 1006.7 hPa NNW 12.2 km/h 20.9 km/h 63% 0.0 mm 0 W/m2
22:42 21.0 °C 13.7 °C 1006.7 hPa NNW 13.4 km/h 18.3 km/h 63% 0.0 mm 0 W/m2
22:47 21.1 °C 13.8 °C 1006.7 hPa NNW 11.1 km/h 18.3 km/h 63% 0.0 mm 0 W/m2
22:52 21.2 °C 13.9 °C 1007.0 hPa NNW 14.8 km/h 20.9 km/h 63% 0.0 mm 0 W/m2
22:57 21.2 °C 13.9 °C 1006.7 hPa NNW 13.4 km/h 23.3 km/h 63% 0.0 mm 0 W/m2
23:02 21.1 °C 13.8 °C 1006.7 hPa NNW 14.8 km/h 23.3 km/h 63% 0.0 mm 0 W/m2
23:07 21.0 °C 13.7 °C 1006.7 hPa NNW 12.2 km/h 21.9 km/h 63% 0.0 mm 0 W/m2
23:12 20.9 °C 14.1 °C 1006.7 hPa NNW 7.2 km/h 23.3 km/h 65% 0.0 mm 0 W/m2
23:18 20.9 °C 14.1 °C 1006.7 hPa NNW 8.7 km/h 17.2 km/h 65% 0.0 mm 0 W/m2
23:23 20.8 °C 14.0 °C 1006.7 hPa NNW 7.2 km/h 17.2 km/h 65% 0.0 mm 0 W/m2
23:28 20.8 °C 14.0 °C 1007.0 hPa NNW 7.2 km/h 14.8 km/h 65% 0.0 mm 0 W/m2
23:33 20.8 °C 14.0 °C 1006.7 hPa North 7.2 km/h 13.4 km/h 65% 0.0 mm 0 W/m2
23:38 20.7 °C 13.9 °C 1007.0 hPa North 6.1 km/h 13.4 km/h 65% 0.0 mm 0 W/m2
23:43 20.7 °C 13.9 °C 1006.7 hPa NNW 3.5 km/h 13.4 km/h 65% 0.0 mm 0 W/m2
23:48 20.8 °C 14.0 °C 1006.7 hPa North 8.7 km/h 18.3 km/h 65% 0.0 mm 0 W/m2
23:53 20.9 °C 13.8 °C 1006.7 hPa North 7.2 km/h 18.3 km/h 64% 0.0 mm 0 W/m2
23:58 20.9 °C 13.8 °C 1006.7 hPa North 11.1 km/h 23.3 km/h 64% 0.0 mm 0 W/m2
Northern Hawkes Bay. New Zealand Historic Data
Compliments of Weather Underground - 2 mb